NITER KCOS-

Flight info

Callsign NITER
Flight time N/A
Altitude VFR
Route PATTERNWORK
Aircraft C172/L-VGD/C

Departure

Time 2026-05-07 04:42
Airport City of Colorado Springs Municipal Airport (KCOS)

Arrival

Time N/A
Airport -
Time Latitude Longitude Altitude Speed Heading
2026-05-07 04:34 38.81483 -104.70147 6188 ft 0 kts 225°
2026-05-07 04:37 38.81473 -104.70163 6188 ft 9 kts 239°
2026-05-07 04:37 38.81509 -104.70254 6189 ft 19 kts 314°
2026-05-07 04:37 38.81647 -104.70430 6189 ft 32 kts 315°
2026-05-07 04:37 38.81789 -104.70612 6188 ft 26 kts 315°
2026-05-07 04:38 38.81927 -104.70786 6188 ft 30 kts 315°
2026-05-07 04:38 38.82061 -104.70958 6188 ft 25 kts 315°
2026-05-07 04:38 38.82172 -104.71100 6188 ft 22 kts 315°
2026-05-07 04:38 38.82284 -104.71244 6189 ft 25 kts 314°
2026-05-07 04:39 38.82402 -104.71405 6189 ft 19 kts 302°
2026-05-07 04:39 38.82407 -104.71425 6189 ft 0 kts 256°
2026-05-07 04:39 38.82397 -104.71490 6190 ft 16 kts 263°
2026-05-07 04:40 38.82332 -104.71601 6190 ft 16 kts 184°
2026-05-07 04:40 38.82246 -104.71579 6190 ft 11 kts 195°
2026-05-07 04:40 38.82154 -104.71594 6190 ft 26 kts 181°
2026-05-07 04:40 38.81843 -104.71595 6187 ft 62 kts 179°
2026-05-07 04:41 38.81310 -104.71596 6188 ft 89 kts 180°
2026-05-07 04:41 38.80735 -104.71575 6407 ft 76 kts 181°
2026-05-07 04:41 38.80084 -104.71596 6334 ft 103 kts 184°
2026-05-07 04:41 38.79389 -104.71598 6488 ft 99 kts 181°
2026-05-07 04:42 38.78764 -104.71581 6787 ft 78 kts 188°
2026-05-07 04:42 38.78374 -104.71980 6880 ft 82 kts 258°
2026-05-07 04:42 38.78447 -104.72670 7054 ft 76 kts 321°
2026-05-07 04:42 38.78990 -104.72978 7063 ft 93 kts 335°
2026-05-07 04:43 38.79565 -104.73302 7264 ft 85 kts 338°
2026-05-07 04:43 38.80093 -104.73610 7412 ft 84 kts 331°
2026-05-07 04:43 38.80669 -104.73960 7472 ft 93 kts 335°
2026-05-07 04:43 38.81266 -104.74280 7563 ft 97 kts 338°
2026-05-07 04:44 38.81817 -104.74275 7470 ft 86 kts 67°
2026-05-07 04:44 38.81914 -104.73154 6734 ft 128 kts 83°
2026-05-07 04:44 38.82055 -104.72129 6560 ft 117 kts 65°
2026-05-07 04:44 38.81919 -104.71348 6285 ft 107 kts 178°
2026-05-07 04:45 38.81211 -104.71581 6234 ft 106 kts 184°
2026-05-07 04:45 38.80563 -104.71584 6494 ft 89 kts 180°
2026-05-07 04:45 38.79870 -104.71588 6303 ft 109 kts 180°
2026-05-07 04:45 38.79221 -104.71585 6685 ft 78 kts 191°
2026-05-07 04:46 38.78931 -104.72065 6805 ft 78 kts 282°
2026-05-07 04:46 38.79377 -104.72510 6824 ft 94 kts 347°
2026-05-07 04:46 38.80034 -104.72690 6889 ft 102 kts 345°
2026-05-07 04:46 38.80782 -104.72933 6849 ft 114 kts 348°
2026-05-07 04:47 38.81578 -104.73084 6883 ft 115 kts
2026-05-07 04:47 38.82154 -104.72444 6666 ft 118 kts 50°
2026-05-07 04:47 38.81999 -104.71588 6332 ft 127 kts 174°
2026-05-07 04:47 38.81075 -104.71592 6225 ft 130 kts 181°
2026-05-07 04:48 38.80287 -104.71592 6587 ft 100 kts 180°
2026-05-07 04:48 38.79645 -104.71591 6819 ft 88 kts 180°
2026-05-07 04:48 38.79327 -104.72125 6835 ft 96 kts 288°
2026-05-07 04:48 38.79874 -104.72596 6857 ft 107 kts 343°
2026-05-07 04:49 38.80563 -104.72824 7097 ft 91 kts 347°
2026-05-07 04:49 38.81187 -104.73008 7180 ft 99 kts 348°
2026-05-07 04:49 38.81861 -104.72649 6673 ft 121 kts 54°
2026-05-07 04:49 38.81873 -104.71691 6355 ft 112 kts 148°
2026-05-07 04:50 38.81201 -104.71598 6204 ft 83 kts 181°
2026-05-07 04:50 38.80733 -104.71592 6190 ft 43 kts 177°
2026-05-07 04:50 38.80623 -104.71682 6189 ft 16 kts 265°
2026-05-07 04:50 38.80612 -104.71715 6189 ft 0 kts 233°
2026-05-07 04:51 38.80564 -104.71733 6188 ft 23 kts 184°
2026-05-07 04:51 38.80327 -104.71734 6188 ft 45 kts 179°
2026-05-07 04:51 38.80046 -104.71730 6188 ft 13 kts 178°